Terminal Aerodrome Forecast
Issued by NWS

Home | Current Version | Previous Version | Text Only | Print | Product List | Glossary On
Versions: 1 2 3 4 5 6 7 8 9 10 11 12
851
FTPA31 PHFO 240544
TAFSTU
TAF
NSTU 240544Z 2406/2506 12006KT P6SM SCT020 SCT045 SCT110=

USA.gov is the U.S. government's official web portal to all federal, state and local government web resources and services.